Location: Harburg
(48.7667°N, 10.6667°E)
Time: 02:06:55
(UTC+00:00)

Cosmos 1766 - Pass Details

Date: 18 September 2020
Orbit: 522 x 544 km, 82.5° (Epoch: 24 October)

Event Time Altitude Azimuth Distance (km) Brightness Sun altitude
Exits shadow 19:34:04 33° 40° (NE) 910 4.3 -21.4°
Drops below altitude 10° 19:36:31 10° 19° (NNE) 1,802 6.1 -21.8°
Sets 19:38:44 0° 15° (NNE) 2,702 7.1 -22.1°
